Location: Dover
(39.1580°N, 75.5250°W)
Time: 03:37:52
(UTC-04:00)

ISS - All Passes

Search period start: 07 May 2015 00:00
Search period end: 17 May 2015 00:00
Orbit: 394 x 401 km, 51.6° (Epoch: 06 May)

Date Brightness Start Highest point End Pass type
(mag) Time Alt. Az. Time Alt. Az. Time Alt. Az.
07 May - 07:22:56 10° SSW 07:26:03 48° SE 07:29:12 10° ENE daylight
07 May - 08:59:56 10° W 09:02:34 22° NNW 09:05:11 10° NNE daylight
07 May - 12:15:53 10° NNW 12:17:21 12° NNE 12:18:51 10° NE daylight
07 May - 13:51:13 10° NW 13:54:21 44° NNE 13:57:30 10° ESE daylight
07 May - 15:28:10 10° W 15:30:29 18° SW 15:32:44 10° S daylight
08 May - 06:29:15 10° S 06:31:48 22° SE 06:34:26 10° ENE daylight
08 May - 08:04:59 10° W 08:08:01 36° NNW 08:11:04 10° NE daylight
08 May - 09:43:55 10° NNW 09:45:07 11° NNW 09:46:16 10° N daylight
08 May - 11:22:13 10° N 11:22:37 10° N 11:23:03 10° NNE daylight
08 May - 12:57:04 10° NNW 12:59:51 26° NNE 13:02:40 10° E daylight
08 May - 14:33:13 10° WNW 14:36:16 37° SW 14:39:17 10° SSE daylight
09 May - 05:36:48 10° SE 05:37:36 11° SE 05:38:33 10° ESE daylight
09 May - 07:10:21 10° WSW 07:13:34 71° NW 07:16:49 10° NE daylight
09 May - 08:48:26 10° NW 08:50:24 15° NNW 08:52:20 10° NNE daylight
09 May - 12:02:59 10° NNW 12:05:14 17° NNE 12:07:31 10° ENE daylight
09 May - 13:38:41 10° NW 13:41:56 82° SW 13:45:11 10° SE daylight
10 May - 06:16:03 10° SW 06:19:11 53° SE 06:22:22 10° ENE daylight
10 May - 07:53:10 10° WNW 07:55:44 21° NNW 07:58:17 10° NNE daylight
10 May - 11:08:59 10° NNW 11:10:31 13° NNE 11:12:07 10° NE daylight
10 May - 12:44:20 10° NW 12:47:30 48° NE 12:50:40 10° ESE daylight
10 May - 14:21:26 10° W 14:23:36 16° SW 14:25:41 10° S daylight
11 May - 05:22:13 10° S 05:24:52 24° SE 05:27:36 10° ENE visible
11 May - 06:58:08 10° W 07:01:07 33° NNW 07:04:07 10° NE daylight
11 May - 08:37:11 10° NNW 08:38:14 11° NNW 08:39:15 10° N daylight
11 May - 10:15:11 10° N 10:15:45 10° N 10:16:21 10° NNE daylight
11 May - 11:50:06 10° NNW 11:52:57 27° NNE 11:55:48 10° E daylight
11 May - 13:26:20 10° WNW 13:29:18 33° SW 13:32:16 10° SSE daylight
12 May - 04:29:24 10° SSE 04:30:37 12° SE 04:31:56 10° ESE visible
12 May - 06:03:23 10° WSW 06:06:35 64° NW 06:09:49 10° NE daylight
12 May - 07:41:35 10° NW 07:43:27 14° NNW 07:45:18 10° NNE daylight
12 May - 10:55:57 10° NNW 10:58:16 18° NNE 11:00:37 10° ENE daylight
12 May - 12:31:41 10° NW 12:34:56 75° SW 12:38:10 10° SE daylight
13 May - 05:08:59 10° SW 05:12:08 58° SE 05:15:20 10° ENE visible
13 May - 06:46:12 10° WNW 06:48:42 20° NNW 06:51:11 10° NNE daylight
13 May - 10:01:52 10° NNW 10:03:30 13° NNE 10:05:10 10° NE daylight
13 May - 11:37:15 10° NW 11:40:26 52° NE 11:43:37 10° ESE daylight
13 May - 13:14:31 10° W 13:16:30 15° SW 13:18:24 10° SSW daylight
14 May - 04:15:01 10° SSW 04:17:45 26° SE 04:20:33 10° ENE visible
14 May - 05:51:05 10° W 05:54:01 31° NNW 05:56:58 10° NE daylight
14 May - 07:30:15 10° NNW 07:31:09 11° N 07:32:02 10° N daylight
14 May - 09:07:58 10° N 09:08:40 11° N 09:09:23 10° NNE daylight
14 May - 10:42:57 10° NNW 10:45:50 29° NNE 10:48:44 10° E daylight
14 May - 12:19:14 10° WNW 12:22:09 30° SW 12:25:03 10° SSE daylight
15 May - 03:21:54 10° SSE 03:23:25 13° SE 03:25:01 10° E visible
15 May - 04:56:14 10° WSW 04:59:25 59° NW 05:02:37 10° NE visible
15 May - 06:34:31 10° NW 06:36:18 14° NNW 06:38:03 10° NNE daylight
15 May - 09:48:44 10° NNW 09:51:06 19° NNE 09:53:31 10° ENE daylight
15 May - 11:24:30 10° NW 11:27:44 68° SW 11:30:57 10° SE daylight
16 May - 04:01:43 10° SW 04:04:54 64° SE 04:08:06 10° ENE visible
16 May - 05:39:03 10° WNW 05:41:29 19° NNW 05:43:54 10° NNE daylight
16 May - 08:54:35 10° NNW 08:56:17 14° NNE 08:58:02 10° NE daylight
16 May - 10:29:59 10° NW 10:33:11 56° NE 10:36:23 10° ESE daylight
16 May - 12:07:25 10° W 12:09:13 14° SW 12:10:55 10° SSW daylight
